• In Hungary
  • List of Countries
  • For 7 days
  • Water Temperature
  • Satellite Maps
  • Weather Map
  • News
  • Weather Widgets
  • user-avatar
    Login

    Hourly Weather Mbandaka

    Today, 18 October, Thursday

    Time Temperature Precipitation Wind Pressure Humidity
    00:00 +24°C° 0 mm 1 mps 731 mmHg 97%
    01:00 +24°C° 0 mm 1 mps 731 mmHg 98%
    02:00 +23°C° 0 mm 1 mps 731 mmHg 98%
    03:00 +23°C° 0 mm 1 mps 730 mmHg 98%
    04:00 +23°C° 0 mm 1 mps 730 mmHg 98%
    05:00 +24°C° 0 mm 1 mps 731 mmHg 96%
    06:00 +24°C° 0 mm 1 mps 731 mmHg 93%
    07:00 +25°C° 0 mm 1 mps 732 mmHg 90%
    08:00 +27°C° 0 mm 1 mps 732 mmHg 78%
    09:00 +29°C° 0 mm 2 mps 732 mmHg 66%
    10:00 +32°C° 0 mm 2 mps 732 mmHg 54%
    11:00 +33°C° 0 mm 1 mps 731 mmHg 50%
    12:00 +34°C° 0 mm 1 mps 730 mmHg 46%
    13:00 +35°C° 0 mm 1 mps 730 mmHg 42%
    14:00 +34°C° 0 mm 1 mps 729 mmHg 43%
    15:00 +34°C° 0 mm 1 mps 728 mmHg 45%
    16:00 +33°C° 0 mm 1 mps 728 mmHg 47%
    17:00 +30°C° 0 mm 0 mps 728 mmHg 52%
    18:00 +28°C° 0 mm 0 mps 728 mmHg 58%
    19:00 +26°C° 0 mm 0 mps 729 mmHg 64%
    20:00 +25°C° 0 mm 0 mps 729 mmHg 67%
    21:00 +24°C° 0 mm 0 mps 729 mmHg 70%
    22:00 +24°C° 0 mm 0 mps 730 mmHg 73%
    23:00 +23°C° 0 mm 0 mps 730 mmHg 75%

    Tomorrow, 19 October, Friday

    Time Temperature Precipitation Wind Pressure Humidity
    00:00 +23°C° 0 mm 0 mps 730 mmHg 77%
    01:00 +25°C° 0 mm 1 mps 730 mmHg 79%
    02:00 +24°C° 0.7 mm 1 mps 730 mmHg 84%
    03:00 +24°C° 0.7 mm 1 mps 730 mmHg 89%
    04:00 +23°C° 0.7 mm 1 mps 730 mmHg 94%
    05:00 +22°C° 0.9 mm 0 mps 730 mmHg 93%
    06:00 +22°C° 0.9 mm 0 mps 731 mmHg 93%
    07:00 +23°C° 0.9 mm 0 mps 731 mmHg 93%
    08:00 +27°C° 0.2 mm 1 mps 732 mmHg 83%
    09:00 +29°C° 0.2 mm 1 mps 732 mmHg 74%
    10:00 +31°C° 0.2 mm 1 mps 732 mmHg 65%
    11:00 +31°C° 1.5 mm 1 mps 731 mmHg 67%
    12:00 +31°C° 1.5 mm 1 mps 731 mmHg 70%
    13:00 +29°C° 1.5 mm 0 mps 730 mmHg 73%
    14:00 +30°C° 1.2 mm 1 mps 730 mmHg 78%
    15:00 +28°C° 1.2 mm 1 mps 729 mmHg 84%
    16:00 +26°C° 1.2 mm 2 mps 729 mmHg 90%
    17:00 +26°C° 0.1 mm 2 mps 730 mmHg 92%
    18:00 +25°C° 0.1 mm 1 mps 730 mmHg 93%
    19:00 +24°C° 0.1 mm 1 mps 731 mmHg 95%
    20:00 +24°C° 0 mm 1 mps 731 mmHg 95%
    21:00 +24°C° 0 mm 1 mps 731 mmHg 95%
    22:00 +24°C° 0 mm 1 mps 731 mmHg 95%
    23:00 +23°C° 0 mm 1 mps 731 mmHg 95%

    Day after tomorrow, 20 October, Saturday

    Time Temperature Precipitation Wind Pressure Humidity
    00:00 +23°C° 0 mm 1 mps 730 mmHg 95%
    01:00 +21°C° 0 mm 0 mps 730 mmHg 94%
    02:00 +21°C° 0 mm 0 mps 730 mmHg 94%
    03:00 +21°C° 0 mm 0 mps 730 mmHg 94%
    04:00 +21°C° 0 mm 0 mps 729 mmHg 94%
    05:00 +22°C° 0 mm 0 mps 730 mmHg 92%
    06:00 +24°C° 0 mm 1 mps 731 mmHg 90%
    07:00 +25°C° 0 mm 1 mps 732 mmHg 88%
    08:00 +27°C° 0 mm 1 mps 732 mmHg 79%
    09:00 +29°C° 0 mm 1 mps 732 mmHg 69%
    10:00 +30°C° 0 mm 2 mps 733 mmHg 60%
    11:00 +31°C° 0 mm 2 mps 732 mmHg 59%
    12:00 +31°C° 0 mm 2 mps 731 mmHg 58%
    13:00 +31°C° 0 mm 2 mps 730 mmHg 57%
    14:00 +31°C° 0 mm 2 mps 730 mmHg 59%
    15:00 +30°C° 0 mm 2 mps 729 mmHg 61%
    16:00 +29°C° 0 mm 1 mps 729 mmHg 62%
    17:00 +28°C° 0 mm 1 mps 729 mmHg 67%
    18:00 +27°C° 0 mm 1 mps 729 mmHg 72%
    19:00 +26°C° 0 mm 1 mps 730 mmHg 76%
    20:00 +25°C° 0 mm 1 mps 730 mmHg 78%
    21:00 +25°C° 0 mm 1 mps 731 mmHg 79%
    22:00 +24°C° 0 mm 1 mps 731 mmHg 80%
    23:00 +24°C° 0 mm 1 mps 731 mmHg 79%

    21 October, Sunday

    Time Temperature Precipitation Wind Pressure Humidity
    00:00 +22°C° 0 mm 0 mps 730 mmHg 78%
    01:00 +22°C° 0 mm 0 mps 730 mmHg 76%
    02:00 +22°C° 0 mm 0 mps 730 mmHg 77%
    03:00 +22°C° 0 mm 0 mps 729 mmHg 78%
    04:00 +22°C° 0 mm 0 mps 729 mmHg 79%
    05:00 +23°C° 0.1 mm 0 mps 730 mmHg 78%
    06:00 +23°C° 0.1 mm 0 mps 731 mmHg 78%
    07:00 +24°C° 0.1 mm 0 mps 732 mmHg 78%
    08:00 +28°C° 0.3 mm 1 mps 732 mmHg 72%
    09:00 +31°C° 0.3 mm 1 mps 732 mmHg 66%
    10:00 +33°C° 0.3 mm 1 mps 732 mmHg 60%
    11:00 +34°C° 0.5 mm 1 mps 731 mmHg 54%
    12:00 +35°C° 0.5 mm 1 mps 730 mmHg 48%
    13:00 +36°C° 0.5 mm 1 mps 729 mmHg 42%
    14:00 +35°C° 0 mm 1 mps 729 mmHg 45%
    15:00 +34°C° 0 mm 1 mps 728 mmHg 48%
    16:00 +31°C° 0 mm 0 mps 728 mmHg 51%
    17:00 +30°C° 0 mm 0 mps 729 mmHg 57%
    18:00 +28°C° 0 mm 0 mps 729 mmHg 63%
    19:00 +26°C° 0 mm 0 mps 730 mmHg 68%
    20:00 +26°C° 0 mm 0 mps 730 mmHg 72%
    21:00 +25°C° 0 mm 0 mps 730 mmHg 75%
    22:00 +24°C° 0 mm 0 mps 730 mmHg 79%
    23:00 +24°C° 0 mm 0 mps 730 mmHg 81%

    22 October, Monday

    Time Temperature Precipitation Wind Pressure Humidity
    00:00 +23°C° 0 mm 0 mps 729 mmHg 83%
    01:00 +23°C° 0 mm 0 mps 729 mmHg 85%
    02:00 +23°C° 0 mm 0 mps 729 mmHg 86%
    03:00 +22°C° 0 mm 0 mps 729 mmHg 88%
    04:00 +22°C° 0 mm 0 mps 729 mmHg 89%
    05:00 +23°C° 0 mm 0 mps 730 mmHg 86%
    06:00 +24°C° 0 mm 0 mps 730 mmHg 83%
    07:00 +25°C° 0 mm 0 mps 731 mmHg 80%
    08:00 +27°C° 0 mm 0 mps 731 mmHg 69%
    09:00 +30°C° 0 mm 0 mps 731 mmHg 59%
    10:00 +33°C° 0 mm 0 mps 731 mmHg 48%
    11:00 +36°C° 0 mm 1 mps 730 mmHg 44%
    12:00 +37°C° 0 mm 1 mps 729 mmHg 40%
    13:00 +39°C° 0 mm 1 mps 728 mmHg 36%
    14:00 +37°C° 0 mm 1 mps 727 mmHg 40%
    15:00 +36°C° 0 mm 1 mps 727 mmHg 44%
    16:00 +33°C° 0 mm 0 mps 727 mmHg 47%
    17:00 +31°C° 0 mm 0 mps 727 mmHg 53%
    18:00 +29°C° 0 mm 0 mps 728 mmHg 58%
    19:00 +27°C° 0 mm 0 mps 729 mmHg 63%
    20:00 +26°C° 0.1 mm 0 mps 729 mmHg 66%
    21:00 +26°C° 0.1 mm 0 mps 729 mmHg 70%
    22:00 +25°C° 0.1 mm 0 mps 729 mmHg 73%
    23:00 +25°C° 0 mm 0 mps 729 mmHg 76%

    23 October, Tuesday

    Time Temperature Precipitation Wind Pressure Humidity
    00:00 +24°C° 0 mm 0 mps 729 mmHg 78%
    01:00 +26°C° 0 mm 1 mps 728 mmHg 81%
    02:00 +23°C° 0.7 mm 0 mps 729 mmHg 86%
    03:00 +22°C° 0.7 mm 0 mps 729 mmHg 91%
    04:00 +22°C° 0.7 mm 0 mps 729 mmHg 96%
    05:00 +22°C° 0 mm 0 mps 730 mmHg 95%
    06:00 +23°C° 0 mm 0 mps 730 mmHg 94%
    07:00 +24°C° 0 mm 0 mps 731 mmHg 92%
    08:00 +26°C° 0.2 mm 0 mps 731 mmHg 83%
    09:00 +28°C° 0.2 mm 0 mps 731 mmHg 73%
    10:00 +30°C° 0.2 mm 0 mps 731 mmHg 63%
    11:00 +32°C° 0.1 mm 0 mps 730 mmHg 56%
    12:00 +35°C° 0.1 mm 1 mps 730 mmHg 48%
    13:00 +37°C° 0.1 mm 1 mps 729 mmHg 41%
    14:00 +35°C° 0 mm 1 mps 729 mmHg 46%
    15:00 +34°C° 0 mm 1 mps 728 mmHg 52%
    16:00 +30°C° 0 mm 0 mps 728 mmHg 58%
    17:00 +31°C° 0.3 mm 1 mps 728 mmHg 66%
    18:00 +29°C° 0.3 mm 1 mps 729 mmHg 74%
    19:00 +27°C° 0.3 mm 1 mps 729 mmHg 81%
    20:00 +27°C° 0.1 mm 1 mps 729 mmHg 84%
    21:00 +26°C° 0.1 mm 1 mps 730 mmHg 87%
    22:00 +26°C° 0.1 mm 1 mps 730 mmHg 90%
    23:00 +25°C° 0.8 mm 1 mps 730 mmHg 92%
    Show more